TimeEDT,TemperatureF,Dew PointF,Humidity,Sea Level PressureIn,VisibilityMPH,Wind Direction,Wind SpeedMPH,Gust SpeedMPH,PrecipitationIn,Events,Conditions,WindDirDegrees,DateUTC
12:53 AM,73.9,57.0,55,30.07,10.0,South,6.9,-,N/A,,Clear,190,2013-06-22 04:53:00
1:53 AM,75.0,55.9,51,30.06,10.0,SSW,8.1,-,N/A,,Partly Cloudy,200,2013-06-22 05:53:00
2:53 AM,75.0,57.0,53,30.04,10.0,SSW,6.9,-,N/A,,Overcast,210,2013-06-22 06:53:00
3:53 AM,75.0,57.9,55,30.02,10.0,SSW,8.1,-,N/A,,Overcast,210,2013-06-22 07:53:00
4:53 AM,72.0,60.1,66,30.01,10.0,SSW,6.9,-,0.01,,Overcast,200,2013-06-22 08:53:00
5:53 AM,71.1,60.1,68,30.03,10.0,SW,3.5,-,N/A,,Scattered Clouds,220,2013-06-22 09:53:00
6:53 AM,71.1,63.0,75,30.04,9.0,Calm,Calm,-,N/A,,Overcast,0,2013-06-22 10:53:00
7:53 AM,72.0,63.0,73,30.04,10.0,South,3.5,-,N/A,,Partly Cloudy,170,2013-06-22 11:53:00
8:53 AM,75.0,64.0,69,30.06,10.0,SW,4.6,-,N/A,,Clear,220,2013-06-22 12:53:00
9:53 AM,79.0,66.0,64,30.08,9.0,WSW,10.4,-,N/A,,Clear,250,2013-06-22 13:53:00
10:53 AM,82.0,68.0,62,30.07,10.0,West,11.5,18.4,N/A,,Partly Cloudy,280,2013-06-22 14:53:00
11:53 AM,82.9,68.0,60,30.06,10.0,Variable,5.8,-,N/A,,Clear,0,2013-06-22 15:53:00
12:53 PM,84.0,68.0,58,30.05,10.0,WSW,5.8,-,N/A,,Clear,250,2013-06-22 16:53:00
1:53 PM,87.1,69.1,55,30.06,10.0,SW,8.1,-,N/A,,Partly Cloudy,230,2013-06-22 17:53:00
2:53 PM,89.1,69.1,52,30.04,10.0,West,6.9,-,N/A,,Clear,280,2013-06-22 18:53:00
3:53 PM,89.1,66.9,48,30.01,10.0,Variable,4.6,-,N/A,,Clear,0,2013-06-22 19:53:00
4:53 PM,88.0,64.9,46,29.97,10.0,SSW,5.8,-,N/A,,Clear,200,2013-06-22 20:53:00
5:53 PM,88.0,68.0,51,29.97,10.0,SW,8.1,-,N/A,,Clear,230,2013-06-22 21:53:00
6:53 PM,84.9,69.1,59,29.99,10.0,South,5.8,-,N/A,,Clear,190,2013-06-22 22:53:00
7:53 PM,84.0,70.0,63,29.99,10.0,South,5.8,-,N/A,,Clear,190,2013-06-22 23:53:00
8:53 PM,80.1,71.1,74,29.99,7.0,South,4.6,-,N/A,,Clear,170,2013-06-23 00:53:00
9:53 PM,80.1,71.1,74,30.02,9.0,South,5.8,-,N/A,,Clear,190,2013-06-23 01:53:00
10:53 PM,78.1,71.1,79,30.02,7.0,South,8.1,-,N/A,,Clear,190,2013-06-23 02:53:00
11:53 PM,77.0,70.0,79,30.02,7.0,SW,6.9,-,N/A,,Clear,220,2013-06-23 03:53:00